Lid_Strength_Index
3 3 3 2 2 2 1 1 1 0 0 1 1 1 1 0 -0 -1 -1 -1 -1 -1 -1 -1 -1 -1 -0 -0 -0 0 1 1 0 1 1 1 1 -0 2 -0 -1 -1 -1
3 3 3 3 2 2 1 1 1 1 0 0 0 0 0 0 -0 -0 -1 -1 -1 -1 -1 -1 -0 -1 0 0 0 0 1 1 0 2 2 3 2 1 -0 -0 -0 -1 -1
4 4 4 3 2 2 2 1 1 1 0 -1 0 0 0 0 1 0 0 -0 -1 -1 -1 -1 -0 -0 -1 0 0 0 0 2 1 -0 2 4 4 3 0 -0 -0 -1 -0
3 4 4 4 3 2 1 1 1 1 -0 -0 0 1 2 2 0 1 0 0 -1 -1 -1 -1 -0 -0 1 1 1 1 -0 0 1 1 0 -0 1 4 4 1 1 -0 -0
3 4 4 3 2 2 1 1 1 1 0 0 -0 1 1 1 1 1 0 -0 -0 0 1 1 0 -1 -0 -1 -1 -1 -0 -0 1 1 2 0 1 0 3 4 2 1 -0
3 3 3 2 2 2 1 1 1 1 0 -0 0 0 1 1 1 1 1 1 1 2 1 1 -0 -1 -1 -1 -1 -1 -1 -0 0 1 0 1 2 2 2 3 3 2 1
3 4 4 3 3 2 2 2 2 1 1 1 0 0 1 1 1 1 1 0 1 1 0 -0 -0 0 -0 -0 -1 -1 -0 -0 0 0 1 0 1 0 1 2 2 3 1
3 4 4 4 3 2 2 2 2 2 1 1 1 1 0 1 0 -0 0 0 0 1 -1 0 0 0 -0 -0 -1 0 0 -1 -0 -0 -0 0 0 0 0 1 2 4 3
4 4 4 4 3 2 2 2 2 2 1 1 1 0 0 -0 0 -0 -1 0 -1 0 0 1 1 1 0 -0 -0 0 -0 -1 -1 -1 -0 0 -0 -0 -0 0 1 3 5
4 4 4 4 3 2 2 1 1 1 1 1 0 0 0 -0 -0 -0 -0 0 0 0 1 1 1 1 1 0 -0 -0 -1 -0 -0 -0 -0 -0 -0 -0 -0 0 0 1 2
5 4 4 3 2 2 2 2 1 1 1 1 1 0 0 -0 -0 0 0 0 0 1 1 2 2 1 1 0 -0 -0 -0 -0 -0 -0 -0 -0 -1 0 0 0 0 1 1
4 4 4 4 3 2 2 2 2 1 1 1 0 0 0 -0 0 0 0 0 1 1 2 2 2 1 1 0 0 0 -0 0 0 0 -0 0 -0 -0 -0 0 1 1 0
4 5 4 4 3 3 2 2 1 1 1 1 1 0 0 0 0 0 1 1 1 1 1 1 1 1 1 0 -0 -0 -0 -0 -0 -0 0 0 0 1 1 1 1 1 1
6 5 4 3 3 3 2 2 2 1 1 1 1 1 1 0 1 1 1 1 1 1 1 1 1 1 1 0 -0 -0 -0 -0 -0 -0 -0 -0 1 2 2 3 2 1 1
6 5 4 4 3 3 2 2 1 1 1 2 2 1 1 1 1 2 1 1 1 1 1 1 1 1 2 3 2 -0 -0 -0 -0 -1 -0 -0 2 3 3 4 3 2 2
6 5 4 4 3 3 2 2 1 2 2 3 2 2 2 2 2 2 1 2 1 1 1 1 1 2 4 8 7 4 -0 -0 0 0 1 1 2 3 4 4 4 3 3
5 5 4 3 3 3 2 2 2 3 4 3 3 2 2 3 2 2 2 2 1 1 1 1 1 2 4 9 8 7 -0 -0 0 1 1 3 4 4 5 5 4 2 4
5 4 4 3 3 2 2 2 3 4 4 3 3 2 3 3 3 2 2 1 1 2 2 2 2 2 6 10 9 8 1 -0 0 1 2 3 4 7 8 5 2 1 2
4 3 3 3 2 2 3 4 4 4 4 4 4 3 3 3 3 3 2 1 1 2 2 2 2 2 5 10 10 7 -0 0 1 1 4 4 5 10 10 4 3 3 2
4 4 3 3 2 2 2 4 4 4 5 4 4 4 3 3 3 2 2 1 2 2 2 3 2 6 4 11 11 9 2 2 2 2 5 9 8 10 10 5 4 4 4
4 3 3 3 2 2 3 4 4 5 4 4 4 4 4 3 2 1 1 2 2 3 3 3 2 3 4 8 11 10 5 5 4 4 5 6 10 10 10 10 5 5 6
4 3 4 3 3 3 3 5 5 5 4 4 4 3 3 3 2 2 2 2 2 3 3 2 2 2 4 9 11 10 10 9 5 6 7 7 10 10 10 8 10 9 7
4 3 3 4 4 4 4 5 5 4 4 4 4 3 3 3 2 2 2 3 3 3 3 3 3 3 3 4 9 9 9 9 6 6 8 9 10 10 7 9 9 8 5
4 4 4 5 5 4 5 5 4 4 4 4 4 3 3 3 2 2 2 3 4 3 3 4 4 4 5 7 8 7 6 6 6 6 5 7 8 9 7 6 5 5 5
3 3 4 5 5 4 5 4 4 3 4 4 4 3 3 3 3 5 7 5 8 8 4 6 5 8 6 12 13 12 10 9 9 10 5 6 6 6 6 5 6 5 5
3 4 5 5 5 5 5 5 4 3 4 4 4 4 3 3 4 5 7 12 11 12 12 12 9 9 12 13 13 13 13 13 12 7 7 7 7 7 7 7 7 6 6